Washington, PA

3:53 PM EST on December 06, 2019 (GMT -0500)
Washington County

Weather History for KAFJ - October, 2019

Change the Weather History Date:

Sunday, October 13, 2019

  Actual Average Record
Temperature  
Mean Temperature 48 °F -  
Max Temperature 64 °F 61 °F 82 °F (2001)
Min Temperature 32 °F 39 °F 24 °F (2012)
Degree Days  
Heating Degree Days 17    
Moisture  
Dew Point 37 °F    
Average Humidity 75    
Maximum Humidity 100    
Minimum Humidity 31    
Precipitation  
Precipitation 0.00 in - - ()
Sea Level Pressure  
Sea Level Pressure 30.06 in    
Wind  
Wind Speed 3 mph ()    
Max Wind Speed 9 mph    
Max Gust Speed -    
Visibility 8.9 miles    
Events      
Averages and records for this station are not official NWS values.
T = Trace of Precipitation, MM = Missing Value Source: Averaged Metar Reports

Daily Weather History Graph

Daily Weather History Graph

Search for Another Location

Airport or City:

Astronomy

Oct. 13, 2019 Rise Set
Actual Time 7:29 AM EDT 6:44 PM EDT
Civil Twilight 7:02 AM EDT 7:12 PM EDT
Nautical Twilight 6:30 AM EDT 7:43 PM EDT
Astronomical Twilight 5:59 AM EDT 8:14 PM EDT
Moon 7:06 PM EDT (10/13) 7:01 AM EDT (10/13)
Length of Visible Light 12h 09m
Length of Day
11h 15m
Full, 100% of the Moon is Illuminated
Oct 13
Full
Oct 13
Full
Oct 21
Last Quarter
Oct 27
New
Nov 4
First Quarter

Hourly Weather History & Observations

Time (EDT) Temp. Windchill Dew Point Humidity Pressure Visibility Wind Dir Wind Speed Gust Speed Precip Events Conditions
12:56 AM 37.9 °F 35.5 °F 36.0 °F 93% 30.14 in 10.0 mi South 3.5 mph - N/A   Clear
1:56 AM 37.0 °F - 36.0 °F 96% 30.14 in 10.0 mi Calm Calm - N/A   Clear
2:56 AM 35.1 °F 31.0 °F 35.1 °F 100% 30.14 in 10.0 mi South 4.6 mph - N/A   Clear
3:56 AM 37.9 °F 34.4 °F 37.0 °F 97% 30.12 in 10.0 mi South 4.6 mph - N/A   Clear
4:56 AM 37.9 °F 35.5 °F 37.0 °F 97% 30.11 in 10.0 mi South 3.5 mph - N/A   Clear
5:56 AM 37.0 °F - 36.0 °F 96% 30.11 in 10.0 mi Calm Calm - N/A   Clear
6:56 AM 34.0 °F 31.0 °F 34.0 °F 100% 30.12 in 2.0 mi NW 3.5 mph - N/A   Clear
7:04 AM 35.6 °F - 35.6 °F 100% 30.10 in 8.0 mi Calm Calm - N/A   Clear
7:40 AM 33.8 °F - 32.0 °F 93% 30.11 in 0.8 mi Calm Calm - N/A   Clear
7:50 AM 32.0 °F - 32.0 °F 100% 30.11 in 2.5 mi Calm Calm - N/A   Clear
7:56 AM 33.1 °F - 32.0 °F 96% 30.13 in 8.0 mi Calm Calm - N/A   Clear
8:56 AM 37.9 °F - 37.9 °F 100% 30.13 in 9.0 mi Calm Calm - N/A   Clear
9:56 AM 46.0 °F 44.8 °F 43.0 °F 89% 30.12 in 10.0 mi Variable 3.5 mph - N/A   Clear
10:56 AM 51.1 °F - 42.1 °F 71% 30.11 in 10.0 mi Variable 4.6 mph - N/A   Clear
11:56 AM 55.0 °F - 39.9 °F 57% 30.08 in 10.0 mi Calm Calm - N/A   Clear
12:56 PM 57.9 °F - 39.9 °F 51% 30.05 in 10.0 mi South 5.8 mph - N/A   Clear
1:56 PM 61.0 °F - 41.0 °F 48% 30.02 in 10.0 mi South 4.6 mph - N/A   Clear
2:56 PM 62.1 °F - 39.9 °F 44% 30.00 in 10.0 mi South 6.9 mph - N/A   Clear
3:56 PM 64.0 °F - 35.1 °F 34% 29.98 in 10.0 mi South 8.1 mph - N/A   Clear
4:56 PM 64.0 °F - 33.1 °F 31% 29.97 in 10.0 mi South 9.2 mph - N/A   Clear
5:56 PM 61.0 °F - 34.0 °F 36% 29.97 in 10.0 mi SSW 5.8 mph - N/A   Clear
6:56 PM 55.0 °F - 39.0 °F 55% 29.98 in 10.0 mi Calm Calm - N/A   Clear
7:56 PM 50.0 °F - 39.9 °F 68% 29.99 in 10.0 mi Calm Calm - N/A   Clear
8:56 PM 46.9 °F - 39.0 °F 74% 30.00 in 10.0 mi Calm Calm - N/A   Clear
9:56 PM 45.0 °F 41.8 °F 37.9 °F 76% 29.99 in 10.0 mi South 5.8 mph - N/A   Clear
10:56 PM 48.0 °F - 35.1 °F 61% 29.99 in 10.0 mi West 4.6 mph - N/A   Clear
11:56 PM 44.1 °F 42.5 °F 36.0 °F 73% 29.99 in 10.0 mi SW 3.5 mph - N/A   Clear